Regional Weather Roundup
Issued by NWS

Home | Current Version | Previous Version | Text Only | Print | Product List | Glossary On
Versions: 1 2 3 4 5 6 7 8 9 10 11 12 13 14 15 16 17 18 19 20 21 22 23 24 25 26 27 28 29 30 31 32 33 34 35 36 37 38 39 40 41 42 43 44 45 46 47 48 49 50
000
ASUS44 KEWX 171711
RWRTX
SOUTH TEXAS REGIONAL WEATHER ROUNDUP
NATIONAL WEATHER SERVICE AUSTIN/SAN ANTONIO TX
1100 AM CST TUE JAN 17 2017

NOTE: "FAIR" INDICATED FEW OR NO CLOUDS BELOW 12,000 FEET WITH NO
SIGNIFICANT WEATHER AND/OR OBSTRUCTIONS TO VISIBILITY.

* - THESE STATIONS ARE NOT NWS OR FAA STATIONS...AND ARE NOT SUBJECT
    TO NWS AND FAA QUALITY CONTROL.

TXZ171-172-183>190-171800-
TEXAS HILL COUNTRY AND EDWARDS PLATEAU

CITY           SKY/WX    TMP DP  RH WIND       PRES   REMARKS
JUNCTION       CLOUDY    49  40  71 E13       30.16R WCI  44
*LLANO         CLOUDY    52  39  62 NE7       30.24R
BURNET         CLOUDY    47  41  80 NE7       30.21R WCI  44
*HORSESHOE BAY RAIN      50  46  86 E5        30.20R WCI  48
*KERRVILLE     CLOUDY    51  48  90 N3        30.16R
*FREDERICKSBRG CLOUDY    50  41  71 NE9       30.17R WCI  47
*ROCKSPRINGS   CLOUDY    52  46  82 E9        30.11R
*BOERNE STAGE  CLOUDY    52  45  76 N9        30.15S
*CASTROVILLE   CLOUDY    58  49  72 NE13      30.12S
HONDO          CLOUDY    58  53  84 NE13      30.09S
*UVALDE        CLOUDY    56  51  81 NE23      30.06F
DEL RIO        RAIN      59  52  77 NW8       30.06R
LAUGHLIN AFB   NOT AVBL
CARRIZO SPRGS  CLOUDY    61  61 100 E9        30.02S
*EAGLE PASS    PTSUNNY   59  57  94 MISG      30.03S FOG
$$

TXZ173-191>194-202-209-217>225-228-171800-
CENTRAL AND SOUTH CENTRAL TEXAS

CITY           SKY/WX    TMP DP  RH WIND       PRES   REMARKS
GEORGETOWN     LGT RAIN  48  43  81 NW6       30.21R WCI  46
AUSTIN/BERGSTM CLOUDY    53  48  83 N13       30.16F
AUSTIN/MABRY   CLOUDY    50  47  89 N7        30.17F WCI  47
*AUSTIN/EXEC   CLOUDY    50  50 100 N10       30.18R WCI  46
*LAGO VISTA    LGT RAIN  47  46  96 NE9       30.18S WCI  43
SAN MARCOS     CLOUDY    52  48  87 N17       30.15F
NEW BRAUNFELS  LGT RAIN  53  50  89 N18G26    30.12F
RANDOLPH AFB   NOT AVBL
PT SAN ANTONIO NOT AVBL
SAN ANTONIO    LGT RAIN  55  48  77 N12G18    30.12S
STINSON FIELD  CLOUDY    56  48  74 NE16      30.10R
*PLEASANTON    CLOUDY    56  53  88 NE14G22   30.10S
*LA GRANGE     RAIN      56  55  96 N5        30.14R
*GIDDINGS      CLOUDY    53  51  92 NE12G17   30.16R
*GONZALES      CLOUDY    57  56  97 N9G20     30.12S
$$

TXZ163>164-176>182-195>201-210>213-226-227-235-171800-
SOUTHEAST TEXAS

CITY           SKY/WX    TMP DP  RH WIND       PRES   REMARKS
COLLEGE STN    CLOUDY    55  53  93 NE12      30.16F
*BRYAN         CLOUDY    54  54 100 NE10      30.18F
*CALDWELL      NOT AVBL
*CROCKETT      TSTM      52  50  93 N7        30.21S
*BRENHAM       TSTM      55  54  97 N10       30.15F
HUNTSVILLE     LGT RAIN  55  53  93 VRB6      30.17R
CONROE         LGT RAIN  57  56  96 NE7       30.14R
HOUSTON BUSH   CLOUDY    60  58  92 NE9       30.12R
HOUSTON HOBBY  CLOUDY    74  71  91 S8        30.09R
*HOUSTON SW AP CLOUDY    72  71  95 SE3       30.10S
PEARLAND       CLOUDY    75  70  84 S10       30.11S
HOUSTON HOOKS  LGT RAIN  59  57  93 NE10      30.13
ELLINGTON FLD  CLOUDY    75  70  83 S9        30.11
SUGAR LAND     LGT RAIN  62  61  96 N9        30.10R
*HOUSTON EXEC  CLOUDY    59  57  94 N13       30.13F
*CLEVELAND MUN CLOUDY    58  56  93 CALM      30.14F
*WHARTON       CLOUDY    62  59  89 N9        30.10F
*COLUMBUS      CLOUDY    56  54  94 N7        30.14S
*EAGLE LAKE    CLOUDY    61  60  97 N8        30.12S
$$

TXZ214>216-236>238-171800-
THE UPPER TEXAS COAST

CITY           SKY/WX    TMP DP  RH WIND       PRES   REMARKS
*ORANGE        CLOUDY   N/A N/A N/A S9        30.13R
PORT ARTHUR    CLOUDY    75  69  81 S14G21    30.10R
GALVESTON      PTSUNNY   72  70  93 S13       30.11R
ANGLETON       LGT RAIN  77  70  79 S15       30.10R
*BAY CITY      CLOUDY    75  71  87 S14       30.10S
PALACIOS       CLOUDY    75  69  81 SE17      30.07F
$$

TXZ229>234-239>247-171800-
TEXAS COASTAL BEND AND RIO GRANDE PLAINS

CITY           SKY/WX    TMP DP  RH WIND       PRES   REMARKS
VICTORIA       CLOUDY    61  59  93 N14G23    30.09R
*BEEVILLE      CLOUDY    63  63 100 S12       30.05S
ROCKPORT       PTSUNNY   75  70  84 SE13      30.06R
*PORT ARANSAS  CLOUDY    70  68  95 SE8       30.06R FOG
*PORT LAVACA   CLOUDY    77  72  84 S18       30.07S
*INGLESIDE     PTSUNNY   78  71  81 SE9G17    30.05R
CORPUS CHRISTI CLOUDY    76  71  85 SE16      30.04F
CORPUS NAS     PTSUNNY   74  70  87 SE14      30.04S
*ROBSTOWN      CLOUDY    76  73  88 SE13      30.04F
ALICE          CLOUDY    77  68  73 SE14      30.01F
KINGSVILLE NAS CLOUDY    78  72  81 SE15      30.02F
COTULLA        CLOUDY    64  58  80 E14G23    30.03S
*FAITH RANCH   CLOUDY    70  66  88 E10G16    30.00F
LAREDO         CLOUDY    71  67  87 E13       30.00S
$$

TXZ248>255-171800-
DEEP SOUTH TEXAS

CITY           SKY/WX    TMP DP  RH WIND       PRES   REMARKS
BROWNSVILLE    CLOUDY    78  71  79 S15       30.02S
PORT ISABEL    CLOUDY    75  72  90 SE13      30.02R
*SOUTH PADRE   NOT AVBL
HARLINGEN      CLOUDY    76  73  91 SE10      30.00F
*HEBBRONVILLE  PTSUNNY   71  66  83 SE12      30.03S
MCALLEN        PTSUNNY   80  68  66 SE16      30.00F
*WESLACO       CLOUDY    79  68  69 S14G20    30.00F
FALFURRIAS     CLOUDY    76  68  76 SE9G17    30.02F
EDINBURG       CLOUDY    81  67  63 SE13G18   30.00F
*ZAPATA        CLOUDY    73  65  75 SE9       29.99S
$$

TXZ213>215-236>238-242>244-246-247-251-254-255-171800-
CMAN STATIONS

STATION/POSITION TIME  TEMP    WIND        PRES    WAVE
                       AIR SEA DIR/SP/G            HT/PER
                 (UTC) (F)     (DEG/KT/KT) (MB)    (FT/S)
SABINE PASS      1648   67 64  140/  8/ 11 1021.0
SEA RIM ST PARK  1700   67     150/  9/ 11 1020.4
NORTH JETTY/GLS  1642   68 63  140/ 10/ 11   N/A
EAGLE POINT      1648   69 67  170/ 10/ 11 1019.2
MORGANS POINT    1648   69 64  150/  4/  5 1019.2
MISSION/ARANSAS  1600   72                 1018.0
PORT O`CONNOR    1648   69     120/ 10/ 10 1017.7
PORT ARANSAS     1700   68 63  120/ 10/ 11 1017.6
MALAQUITE BEACH  1648   67 65  120/ 10/ 11 1018.2
BAFFIN BAY       1648   71 70  110/ 10/ 14 1017.1
PORT ISABEL      1648   73 69  170/  7/ 10 1016.4
$$

GMZ080-GMZ150>470-171800-
OFFSHORE BUOY REPORTS

STATION/POSITION TIME  TEMP    WIND        PRES    WAVE
                       AIR SEA DIR/SP/G            HT/PER
                 (UTC) (F)     (DEG/KT/KT) (MB)    (FT/S)
20 E GALVESTON   1650   68 63  150/  8/ 10 1019.6    3/ 7
90 E PT ARANSAS  1550   74 73  140/ 12/ 14 1018.6    5/ 8
35 NE PT MANSFLD 1650   72     140/ 12/ 14 1017.0    5/ 8
200 E PT ISABEL  1650   76 75  130/ 16/ 19 1018.6    5/ 7
$$




USA.gov is the U.S. government's official web portal to all federal, state and local government web resources and services.